EW7349 Garrisonville VA US current weather conditions

sailwx.info

Wind from 215 at 1 knots gusting 5

Air temperature 6.1° C
Dewpoint 5.4° C

Last reported at 2019-Dec-09 19:03 UTC.
Time now 2019-Dec-09 19:18 UTC

Location: N 38°32' W 077°34'.
View on Google Maps.

See reports from other nearby stations

  
Tides and Currents Weather Stations Pressure Air Temp Water Temp Dewpoint Dewpoint Depression Visibility Wind Speed Wind Dir Waves Ship Positions
date/time (UTC)wind fromknots sea level pressurealtimeterstation pressurevisibilityair tempwater tempwave heightnotes
2019-Dec-09 19:03 215 1 gusting 5 6.1
2019-Dec-09 18:52 178 0 gusting 4 6.1
2019-Dec-09 18:47 128 0 gusting 1 6.1
2019-Dec-09 18:42 130 0 gusting 2 6.1
2019-Dec-09 18:37 190 1 gusting 3 6.1
2019-Dec-09 18:32 189 1 gusting 4 6.1
2019-Dec-09 18:27 217 0 gusting 4 6.1
2019-Dec-09 18:22 211 0 gusting 4 6.1
2019-Dec-09 18:17 188 1 gusting 4 6.1
2019-Dec-09 18:12 164 1 gusting 4 6.1
2019-Dec-09 18:07 240 1 gusting 4 5.6
2019-Dec-09 18:02 212 1 gusting 4 5.6
2019-Dec-09 17:57 198 1 gusting 3 5.6
2019-Dec-09 17:52 125 1 gusting 5 5.6
2019-Dec-09 17:48 209 1 gusting 5 5.6
2019-Dec-09 17:42 219 1 gusting 4 5.6
2019-Dec-09 17:33 200 1 gusting 5 5.6
2019-Dec-09 17:27 209 0 gusting 4 5.6
2019-Dec-09 17:22 196 0 gusting 6 5.6
2019-Dec-09 17:17 176 1 gusting 6 5.6
2019-Dec-09 17:12 213 1 gusting 7 5.6
2019-Dec-09 17:07 154 1 gusting 7 5.6
2019-Dec-09 17:02 180 1 gusting 3 5.6
2019-Dec-09 16:57 203 1 gusting 3 5.6
2019-Dec-09 16:52 207 1 gusting 5 5.6
2019-Dec-09 16:47 186 1 gusting 6 5.6
2019-Dec-09 16:42 219 2 gusting 6 5.6
2019-Dec-09 16:37 203 1 gusting 7 5.6
2019-Dec-09 16:32 128 1 gusting 8 5.6
2019-Dec-09 16:27 199 1 gusting 8 5.6
2019-Dec-09 16:22 197 2 gusting 5 5.6
2019-Dec-09 16:17 215 2 gusting 6 5.6
2019-Dec-09 16:12 182 2 gusting 6 5.6
2019-Dec-09 16:07 217 1 gusting 4 5.6
2019-Dec-09 16:02 181 1 gusting 6 5.6
2019-Dec-09 15:57 261 1 gusting 6 5.6
2019-Dec-09 15:52 177 1 gusting 5 5.6
2019-Dec-09 15:47 186 1 gusting 3 5.6
2019-Dec-09 15:42 215 1 gusting 3 5.6
2019-Dec-09 15:37 188 1 gusting 4 5.6
2019-Dec-09 15:32 170 1 gusting 4 5.6
2019-Dec-09 15:27 300 1 gusting 5 5.6
2019-Dec-09 15:22 195 1 gusting 6 5.6
2019-Dec-09 15:17 210 0 gusting 6 5.6
2019-Dec-09 15:12 201 0 gusting 2 5.6
2019-Dec-09 15:07 247 0 gusting 3 5.6
2019-Dec-09 15:02 247 0 gusting 3 5.6
2019-Dec-09 14:57 242 0 gusting 3 5.6
2019-Dec-09 14:52 242 0 gusting 2 5.6
2019-Dec-09 14:47 248 1 gusting 5 5.6
2019-Dec-09 14:42 206 1 gusting 5 6.1
2019-Dec-09 14:37 178 1 gusting 3 6.1
2019-Dec-09 14:32 205 1 gusting 3 6.1
2019-Dec-09 14:27 232 1 gusting 7 6.1
2019-Dec-09 14:22 182 2 gusting 7 6.1
2019-Dec-09 14:17 170 2 gusting 5 6.1
2019-Dec-09 14:12 171 1 gusting 7 5.6
2019-Dec-09 14:07 202 1 gusting 7 5.6
2019-Dec-09 14:02 237 1 gusting 5 5.6
2019-Dec-09 13:57 172 1 gusting 5 5.6
2019-Dec-09 13:52 243 1 gusting 5 5.6
2019-Dec-09 13:47 236 1 gusting 5 5.6
2019-Dec-09 13:42 238 1 gusting 6 5.6
2019-Dec-09 13:37 225 1 gusting 6 5.0
2019-Dec-09 13:32 198 1 gusting 4 5.0
2019-Dec-09 13:27 196 0 gusting 3 5.0
2019-Dec-09 13:22 190 0 gusting 3 5.0
2019-Dec-09 13:17 198 0 gusting 2 5.0
2019-Dec-09 13:12 198 0 gusting 3 5.0
2019-Dec-09 13:07 198 0 gusting 3 5.0
2019-Dec-09 13:02 228 0 gusting 2 5.0
2019-Dec-09 12:57 228 0 gusting 2 4.4
2019-Dec-09 12:52 228 0 gusting 2 4.4
2019-Dec-09 12:47 228 4.4
2019-Dec-09 12:42 228 4.4
2019-Dec-09 12:37 228 0 gusting 3 4.4
2019-Dec-09 12:32 229 0 gusting 3 4.4
2019-Dec-09 12:27 142 0 gusting 2 4.4
2019-Dec-09 12:22 203 4.4
2019-Dec-09 12:17 221 4.4
2019-Dec-09 12:12 221 4.4
2019-Dec-09 12:07 221 4.4
2019-Dec-09 12:02 221 4.4
2019-Dec-09 11:57 221 4.4
2019-Dec-09 11:52 221 0 gusting 1 4.4
2019-Dec-09 11:47 221 4.4
2019-Dec-09 11:42 221 4.4
2019-Dec-09 11:37 221 4.4
2019-Dec-09 11:32 221 4.4
2019-Dec-09 11:27 221 4.4
2019-Dec-09 11:22 221 4.4
2019-Dec-09 11:17 221 4.4
2019-Dec-09 11:12 221 4.4
2019-Dec-09 11:07 221 4.4
2019-Dec-09 11:02 221 4.4
2019-Dec-09 10:57 221 4.4
2019-Dec-09 10:52 221 4.4
2019-Dec-09 10:47 221 4.4
2019-Dec-09 10:42 221 4.4
2019-Dec-09 10:37 221 0 gusting 2 4.4
2019-Dec-09 10:32 215 4.4
2019-Dec-09 10:27 215 4.4
2019-Dec-09 10:22 215 4.4
2019-Dec-09 10:17 218 4.4
2019-Dec-09 10:12 218 4.4
2019-Dec-09 10:07 218 4.4
2019-Dec-09 10:02 218 4.4
2019-Dec-09 09:57 218 4.4
2019-Dec-09 09:52 218 0 gusting 0 4.4
2019-Dec-09 09:47 218 0 gusting 2 4.4
2019-Dec-09 09:42 218 4.4
2019-Dec-09 09:37 218 4.4
2019-Dec-09 09:32 218 4.4
2019-Dec-09 09:27 182 4.4
2019-Dec-09 09:22 182 4.4
2019-Dec-09 09:17 182 4.4
2019-Dec-09 09:12 182 4.4
2019-Dec-09 09:07 182 4.4
2019-Dec-09 09:02 182 5.0
2019-Dec-09 08:57 182 5.0
2019-Dec-09 08:52 182 5.0
2019-Dec-09 08:47 182 5.0
2019-Dec-09 08:42 182 5.0
2019-Dec-09 08:37 182 5.0
2019-Dec-09 08:32 181 5.0
2019-Dec-09 08:27 181 5.0
2019-Dec-09 08:22 181 5.0
2019-Dec-09 08:17 181 5.6
2019-Dec-09 08:12 181 5.6
2019-Dec-09 08:07 181 5.6
2019-Dec-09 08:02 181 0 gusting 1 5.6
2019-Dec-09 07:57 181 5.6
2019-Dec-09 07:52 181 5.6
2019-Dec-09 07:47 181 5.6
2019-Dec-09 07:42 181 5.6
2019-Dec-09 07:37 181 5.6
2019-Dec-09 07:32 181 5.6
2019-Dec-09 07:27 182 5.6
2019-Dec-09 07:22 182 5.6
2019-Dec-09 07:17 182 5.6
2019-Dec-09 07:12 182 5.6
2019-Dec-09 07:07 182 5.6
2019-Dec-09 07:02 182 5.6
2019-Dec-09 06:57 182 5.6
2019-Dec-09 06:52 182 5.6
2019-Dec-09 06:47 182 5.6
2019-Dec-09 06:42 182 5.6
2019-Dec-09 06:37 182 5.6
2019-Dec-09 06:32 182 5.6
2019-Dec-09 06:27 182 5.6
2019-Dec-09 06:22 182 5.6
2019-Dec-09 06:17 182 5.6
2019-Dec-09 06:12 182 5.6
2019-Dec-09 06:07 182 5.6
2019-Dec-09 06:02 182 5.6
2019-Dec-09 05:57 182 5.6
2019-Dec-09 05:52 182 5.6
2019-Dec-09 05:47 182 5.6
2019-Dec-09 05:42 182 5.6
2019-Dec-09 05:37 182 5.6
2019-Dec-09 05:32 182 5.6
2019-Dec-09 05:27 182 5.6
2019-Dec-09 05:22 182 5.6
2019-Dec-09 05:17 182 5.6
2019-Dec-09 05:12 182 5.6
2019-Dec-09 05:07 182 5.6
2019-Dec-09 05:02 182 5.6
2019-Dec-09 04:57 182 5.6
2019-Dec-09 04:52 182 5.6
2019-Dec-09 04:47 182 5.6
2019-Dec-09 04:42 182 5.6
2019-Dec-09 04:37 182 5.6
2019-Dec-09 04:32 182 5.6
2019-Dec-09 04:27 182 5.6
2019-Dec-09 04:22 182 5.6
2019-Dec-09 04:17 182 5.6
2019-Dec-09 04:12 182 5.6
2019-Dec-09 04:07 182 5.6
2019-Dec-09 04:02 182 5.6
2019-Dec-09 03:57 182 5.6
2019-Dec-09 03:52 182 5.6
2019-Dec-09 03:47 182 5.6
2019-Dec-09 03:42 182 5.6
2019-Dec-09 03:37 182 5.6
2019-Dec-09 03:32 182 5.6
2019-Dec-09 03:27 182 5.6
2019-Dec-09 03:22 182 5.6
2019-Dec-09 03:17 182 5.6
2019-Dec-09 03:12 182 5.6
2019-Dec-09 03:07 182 5.6
2019-Dec-09 03:02 182 5.6
2019-Dec-09 02:57 182 5.6
2019-Dec-09 02:52 182 5.6
2019-Dec-09 02:47 182 0 gusting 2 5.6
2019-Dec-09 02:42 182 6.1
2019-Dec-09 02:37 105 6.1
2019-Dec-09 02:32 153 0 gusting 1 6.1
2019-Dec-09 02:27 153 6.1
2019-Dec-09 02:22 184 6.1
2019-Dec-09 02:17 184 6.1
2019-Dec-09 02:12 184 6.1
2019-Dec-09 02:07 184 6.1
2019-Dec-09 02:02 184 6.1
2019-Dec-09 01:57 184 6.1
2019-Dec-09 01:52 184 6.1
2019-Dec-09 01:47 184 6.1
2019-Dec-09 01:42 184 6.1
2019-Dec-09 01:37 184 6.1
2019-Dec-09 01:32 184 6.1
2019-Dec-09 01:27 184 6.1
2019-Dec-09 01:22 184 6.1
2019-Dec-09 01:17 184 6.1
2019-Dec-09 01:12 184 6.1
2019-Dec-09 01:07 184 6.1
2019-Dec-09 01:02 184 6.1
2019-Dec-09 00:57 184 6.1
2019-Dec-09 00:52 184 6.1
2019-Dec-09 00:47 184 6.1
2019-Dec-09 00:42 184 6.1
2019-Dec-09 00:37 184 6.1
2019-Dec-09 00:32 184 6.1
2019-Dec-09 00:27 184 6.1
2019-Dec-09 00:22 184 6.1
2019-Dec-09 00:17 139 0 gusting 1 6.1
2019-Dec-09 00:12 139 6.1
2019-Dec-09 00:07 139 6.1
2019-Dec-09 00:02 139 6.1
2019-Dec-08 23:57 139 6.7
2019-Dec-08 23:52 139 6.1
2019-Dec-08 23:47 139 6.7
2019-Dec-08 23:42 139 6.7
2019-Dec-08 23:37 139 6.7
2019-Dec-08 23:32 139 6.7
2019-Dec-08 23:27 139 6.7
2019-Dec-08 23:22 139 6.7
2019-Dec-08 23:17 139 6.7
2019-Dec-08 23:12 139 6.7
2019-Dec-08 23:06 139 6.7
2019-Dec-08 23:02 139 6.7
2019-Dec-08 22:56 139 6.7
2019-Dec-08 22:51 139 6.7
2019-Dec-08 22:46 139 6.7
2019-Dec-08 22:41 139 6.7
2019-Dec-08 22:36 139 6.7
2019-Dec-08 22:31 139 7.2
2019-Dec-08 22:27 139 7.2
2019-Dec-08 22:21 139 7.2
2019-Dec-08 22:16 139 7.2
2019-Dec-08 22:11 139 7.2
2019-Dec-08 22:06 139 7.2
2019-Dec-08 22:01 139 7.2
2019-Dec-08 21:56 139 7.2
2019-Dec-08 21:51 139 0 gusting 1 7.8
2019-Dec-08 21:46 139 0 gusting 1 7.8
2019-Dec-08 21:41 139 0 gusting 1 7.8
2019-Dec-08 21:36 139 0 gusting 1 7.8
2019-Dec-08 21:31 139 0 gusting 2 7.8
2019-Dec-08 21:26 215 7.8
2019-Dec-08 21:21 191 7.8
2019-Dec-08 21:16 191 0 gusting 4 7.8
2019-Dec-08 21:11 191 1 gusting 4 7.8
2019-Dec-08 21:06 188 0 gusting 4 7.8
2019-Dec-08 21:01 245 0 gusting 2 8.3
2019-Dec-08 20:56 245 0 gusting 2 8.3
2019-Dec-08 20:51 069 0 gusting 3 8.3
2019-Dec-08 20:46 253 0 gusting 3 8.3
2019-Dec-08 20:41 167 1 gusting 5 8.3
2019-Dec-08 20:36 177 2 gusting 6 8.3
2019-Dec-08 20:31 198 2 gusting 6 8.3
2019-Dec-08 20:26 195 0 gusting 3 8.3
2019-Dec-08 20:21 053 1 gusting 3 8.3
2019-Dec-08 20:16 182 0 gusting 3 8.3
2019-Dec-08 20:11 210 1 gusting 5 8.3
2019-Dec-08 20:06 210 1 gusting 6 8.3
2019-Dec-08 20:01 215 1 gusting 6 8.3
2019-Dec-08 19:56 172 1 gusting 4 8.3
2019-Dec-08 19:51 223 2 gusting 6 8.3
2019-Dec-08 19:46 185 2 gusting 6 8.3
2019-Dec-08 19:41 213 2 gusting 6 8.3
2019-Dec-08 19:36 205 1 gusting 5 8.3
2019-Dec-08 19:31 205 2 gusting 6 8.3
2019-Dec-08 19:26 126 2 gusting 9 8.3
2019-Dec-08 19:21 238 2 gusting 9 8.3
2019-Dec-08 19:16 199 2 gusting 6 8.3
2019-Dec-08 19:11 207 1 gusting 6 8.3
2019-Dec-08 19:06 213 1 gusting 6 8.3
2019-Dec-08 19:01 181 1 gusting 6 8.3
2019-Dec-08 18:56 188 1 gusting 6 8.3
2019-Dec-08 18:51 136 2 gusting 6 7.8
2019-Dec-08 18:46 211 2 gusting 6 7.8
2019-Dec-08 18:41 192 2 gusting 7 8.3
2019-Dec-08 18:36 200 2 gusting 7 8.3
2019-Dec-08 18:31 107 1 gusting 5 8.3
2019-Dec-08 18:26 098 1 gusting 5 7.8
2019-Dec-08 18:21 223 1 gusting 6 7.8
2019-Dec-08 18:16 190 2 gusting 7 7.8
2019-Dec-08 18:11 224 3 gusting 7 7.8
2019-Dec-08 18:06 172 2 gusting 6 7.8
2019-Dec-08 18:01 244 2 gusting 7 7.8
2019-Dec-08 17:56 223 2 gusting 7 7.8
2019-Dec-08 17:51 201 2 gusting 7 7.8
2019-Dec-08 17:46 059 2 gusting 7 7.8
2019-Dec-08 17:41 074 1 gusting 5 7.8
2019-Dec-08 17:36 215 1 gusting 5 7.8
2019-Dec-08 17:31 145 1 gusting 4 7.8
2019-Dec-08 17:26 090 2 gusting 6 7.2
2019-Dec-08 17:21 237 2 gusting 6 7.2
2019-Dec-08 17:16 213 2 gusting 6 7.2
2019-Dec-08 17:11 225 2 gusting 7 6.7
2019-Dec-08 17:06 225 2 gusting 7 6.7
2019-Dec-08 17:01 113 2 gusting 6 6.7
2019-Dec-08 16:56 149 2 gusting 6 6.1
2019-Dec-08 16:51 080 2 gusting 6 6.1
2019-Dec-08 16:46 175 3 gusting 8 6.1
2019-Dec-08 16:41 167 3 gusting 8 6.1
2019-Dec-08 16:36 230 2 gusting 7 6.1
2019-Dec-08 16:31 193 1 gusting 7 6.1
2019-Dec-08 16:26 196 1 gusting 4 6.1
2019-Dec-08 16:21 212 1 gusting 4 5.6
2019-Dec-08 16:16 204 2 gusting 6 5.6
2019-Dec-08 16:11 184 2 gusting 6 5.6
2019-Dec-08 16:06 221 2 gusting 6 5.0
2019-Dec-08 16:01 215 2 gusting 6 5.0
2019-Dec-08 15:56 176 1 gusting 3 5.0
2019-Dec-08 15:51 185 2 gusting 8 4.4
2019-Dec-08 15:46 171 3 gusting 8 4.4
2019-Dec-08 15:41 157 1 gusting 6 4.4
2019-Dec-08 15:36 155 0 gusting 5 3.9
2019-Dec-08 15:31 148 1 gusting 4 3.9
2019-Dec-08 15:26 155 1 gusting 5 3.3
2019-Dec-08 15:21 213 1 gusting 5 3.3
2019-Dec-08 15:16 188 0 gusting 3 2.8
2019-Dec-08 15:11 202 0 gusting 3 2.8
2019-Dec-08 15:06 192 1 gusting 4 2.2
2019-Dec-08 15:01 186 1 gusting 4 2.2
2019-Dec-08 14:56 194 0 gusting 4 2.2
2019-Dec-08 14:51 198 0 gusting 3 1.7
2019-Dec-08 14:46 194 1 gusting 3 1.7
2019-Dec-08 14:41 220 1 gusting 3 1.7
2019-Dec-08 14:36 223 0 gusting 3 1.1
2019-Dec-08 14:31 194 0 gusting 2 0.6
2019-Dec-08 14:26 181 0 gusting 2 0.6
2019-Dec-08 14:21 192 1 gusting 2 -0.0
2019-Dec-08 14:16 175 0 gusting 2 -0.0
2019-Dec-08 14:11 175 -0.6
2019-Dec-08 14:06 174 -0.6
2019-Dec-08 14:01 174 0 gusting 1 -1.1
2019-Dec-08 13:56 174 0 gusting 4 -1.1
2019-Dec-08 13:51 174 -1.7
2019-Dec-08 13:46 335 -1.7
2019-Dec-08 13:41 335 -1.7
2019-Dec-08 13:36 335 -2.2
2019-Dec-08 13:31 335 -2.2
2019-Dec-08 13:26 335 -2.8
2019-Dec-08 13:21 335 -2.8
2019-Dec-08 13:16 335 -2.8
2019-Dec-08 13:11 335 -3.3
2019-Dec-08 13:06 335 -3.3
2019-Dec-08 13:01 335 -3.3
2019-Dec-08 12:56 335 -3.3
2019-Dec-08 12:51 335 -3.3
2019-Dec-08 12:46 335 -3.3
2019-Dec-08 12:41 335 -3.3
2019-Dec-08 12:36 335 -3.3
2019-Dec-08 12:31 335 -3.3
2019-Dec-08 12:26 335 -3.3
2019-Dec-08 12:21 335 -3.3
2019-Dec-08 12:16 335 -3.3
2019-Dec-08 12:11 335 -3.3
2019-Dec-08 12:06 335 -3.3
2019-Dec-08 12:01 335 -3.3
2019-Dec-08 11:56 335 -3.3
2019-Dec-08 11:51 335 -3.3
2019-Dec-08 11:46 335 -3.3
2019-Dec-08 11:41 335 -3.3
2019-Dec-08 11:36 335 -3.3
2019-Dec-08 11:31 335 -3.3
2019-Dec-08 11:26 335 -3.3
2019-Dec-08 11:21 335 -3.3
2019-Dec-08 11:16 335 -3.3
2019-Dec-08 11:11 335 -3.3
2019-Dec-08 11:06 335 -3.3
2019-Dec-08 11:01 335 -3.3
2019-Dec-08 10:56 335 -3.3
2019-Dec-08 10:51 335 -3.3
2019-Dec-08 10:46 335 -3.3
2019-Dec-08 10:41 335 -3.3
2019-Dec-08 10:36 335 -3.3
2019-Dec-08 10:31 335 -3.3
2019-Dec-08 10:26 335 -3.3
2019-Dec-08 10:21 335 -3.3
2019-Dec-08 10:16 335 -3.3
2019-Dec-08 10:11 335 -3.3
2019-Dec-08 10:06 335 -3.3
2019-Dec-08 10:01 335 -3.3
2019-Dec-08 09:56 335 -3.3
2019-Dec-08 09:51 335 -3.3
2019-Dec-08 09:46 335 -3.3
2019-Dec-08 09:41 335 -3.3
2019-Dec-08 09:36 335 -3.3
2019-Dec-08 09:31 335 -3.3
2019-Dec-08 09:26 335 -3.3
2019-Dec-08 09:21 335 -3.3
2019-Dec-08 09:16 335 -3.3
2019-Dec-08 09:11 335 -2.8
2019-Dec-08 09:06 335 -2.8
2019-Dec-08 09:01 335 -2.8
2019-Dec-08 08:56 335 -2.8
2019-Dec-08 08:51 335 -2.8
2019-Dec-08 08:46 335 -2.8
2019-Dec-08 08:41 335 -2.8
2019-Dec-08 08:36 335 -2.8
2019-Dec-08 08:31 335 -2.8
2019-Dec-08 08:26 335 -2.8
2019-Dec-08 08:21 335 -2.8
2019-Dec-08 08:16 335 -2.8
2019-Dec-08 08:11 335 -2.8
2019-Dec-08 08:06 335 -2.8
2019-Dec-08 08:01 335 -2.8
2019-Dec-08 07:56 335 -2.8
2019-Dec-08 07:51 335 -2.8
2019-Dec-08 07:46 335 -2.8
2019-Dec-08 07:41 335 -2.2
2019-Dec-08 07:36 335 -2.2
2019-Dec-08 07:31 335 -2.2
2019-Dec-08 07:26 335 -2.2
2019-Dec-08 07:21 335 -2.2
2019-Dec-08 07:16 335 -2.2
2019-Dec-08 07:11 335 -2.2
2019-Dec-08 07:06 335 -2.2
2019-Dec-08 07:01 335 -2.2
2019-Dec-08 06:56 335 -2.2
2019-Dec-08 06:51 335 -2.2
2019-Dec-08 06:46 335 -2.2
2019-Dec-08 06:41 335 -1.7
2019-Dec-08 06:36 335 -1.7
2019-Dec-08 06:31 335 -1.7
2019-Dec-08 06:26 335 -1.7
2019-Dec-08 06:21 335 -1.7
2019-Dec-08 06:16 335 -1.7
2019-Dec-08 06:11 335 -1.7
2019-Dec-08 06:06 335 -1.7
2019-Dec-08 06:01 335 -1.7
2019-Dec-08 05:56 335 -1.7
2019-Dec-08 05:51 335 -1.7
2019-Dec-08 05:46 335 -1.7
2019-Dec-08 05:43 335 -1.7
2019-Dec-08 03:36 335 -0.6
2019-Dec-08 03:31 335 -0.6
2019-Dec-08 03:26 335 -0.0
2019-Dec-08 03:21 335 -0.0
2019-Dec-08 03:16 335 -0.0
2019-Dec-08 03:11 335 -0.0
2019-Dec-08 03:06 018 0.6
2019-Dec-08 03:01 017 0.6
2019-Dec-08 02:56 018 0.6
2019-Dec-08 02:50 017 0.6
2019-Dec-08 02:45 017 0.6
2019-Dec-08 02:40 017 0.6
2019-Dec-08 02:35 018 0 gusting 1 0.6
2019-Dec-08 02:30 018 0 gusting 1 0.6
2019-Dec-08 02:25 017 0 gusting 1 0.6
2019-Dec-08 02:20 017 0 gusting 1 0.6
2019-Dec-08 02:15 017 0 gusting 1 0.6
2019-Dec-08 02:10 018 0.6
2019-Dec-08 02:05 018 0.6
2019-Dec-08 02:00 018 0.6
2019-Dec-08 01:55 018 0.6
2019-Dec-08 01:50 018 0.6
2019-Dec-08 01:45 018 0.6
2019-Dec-08 01:40 018 0.6
2019-Dec-08 01:35 018 0.6
2019-Dec-08 01:30 018 0.6
2019-Dec-08 01:25 018 0.6
2019-Dec-08 01:20 018 0.6
2019-Dec-08 01:15 331 0.6
2019-Dec-08 01:10 307 0.6
2019-Dec-08 01:05 307 0.6
2019-Dec-08 01:00 307 0.6
2019-Dec-08 00:55 307 0.6
2019-Dec-08 00:50 307 0.6
2019-Dec-08 00:45 307 1.1
2019-Dec-08 00:40 307 1.1
2019-Dec-08 00:35 307 1.1
2019-Dec-08 00:30 307 1.1
2019-Dec-08 00:25 307 1.1
2019-Dec-08 00:20 307 1.1
2019-Dec-08 00:15 307 1.7
2019-Dec-08 00:10 307 1.7
2019-Dec-08 00:05 307 1.7
2019-Dec-08 00:00 307 1.7
2019-Dec-07 23:55 307 1.7
2019-Dec-07 23:50 307 1.7
2019-Dec-07 23:45 307 1.7
2019-Dec-07 23:40 307 1.7
2019-Dec-07 23:35 307 0 gusting 1 1.7
2019-Dec-07 23:30 307 0 gusting 1 1.7
2019-Dec-07 23:25 307 0 gusting 1 1.7
2019-Dec-07 23:20 307 1.7
2019-Dec-07 23:15 307 1.7
2019-Dec-07 23:10 307 2.2
2019-Dec-07 23:05 307 2.2
2019-Dec-07 23:00 307 2.2
2019-Dec-07 22:55 307 0 gusting 1 2.2
2019-Dec-07 22:50 306 0 gusting 1 2.2
2019-Dec-07 22:45 306 0 gusting 1 2.8
2019-Dec-07 22:40 306 0 gusting 1 3.3
2019-Dec-07 22:35 306 3.9
2019-Dec-07 22:30 306 3.9
2019-Dec-07 22:25 306 3.9
2019-Dec-07 22:20 306 4.4
2019-Dec-07 22:15 306 4.4
2019-Dec-07 22:10 306 4.4
2019-Dec-07 22:05 306 4.4
2019-Dec-07 22:00 306 5.0
2019-Dec-07 21:55 306 5.0
2019-Dec-07 21:50 306 5.6
2019-Dec-07 21:45 306 5.6
2019-Dec-07 21:40 306 5.6
2019-Dec-07 21:35 306 5.6
2019-Dec-07 21:30 306 5.6
2019-Dec-07 21:25 306 6.1
2019-Dec-07 21:20 306 6.1
2019-Dec-07 21:15 306 6.1
2019-Dec-07 21:10 240 6.7
2019-Dec-07 21:05 240 0 gusting 2 6.7
2019-Dec-07 21:00 037 0 gusting 2 6.7
2019-Dec-07 20:55 037 0 gusting 2 6.7
2019-Dec-07 20:50 194 6.7
2019-Dec-07 20:45 194 0 gusting 3 6.7
2019-Dec-07 20:40 194 1 gusting 3 7.2
2019-Dec-07 20:35 028 0 gusting 2 7.2
2019-Dec-07 20:30 038 0 gusting 2 7.2
2019-Dec-07 20:25 051 7.2
2019-Dec-07 20:20 051 0 gusting 3 7.8
2019-Dec-07 20:15 051 0 gusting 3 7.8
2019-Dec-07 20:10 302 1 gusting 2 7.8
2019-Dec-07 20:05 060 1 gusting 3 7.8
2019-Dec-07 20:00 023 0 gusting 3 7.8
2019-Dec-07 19:55 028 0 gusting 3 7.8
2019-Dec-07 19:50 032 1 gusting 4 7.8
2019-Dec-07 19:45 017 1 gusting 4 7.8
2019-Dec-07 19:40 032 0 gusting 3 8.3
2019-Dec-07 19:35 014 0 gusting 2 8.3
2019-Dec-07 19:30 355 0 gusting 1 8.3
2019-Dec-07 19:25 268 0 gusting 2 7.8
2019-Dec-07 19:20 253 1 gusting 3 7.8
2019-Dec-07 19:15 205 1 gusting 4 7.8
2019-Dec-07 19:10 028 1 gusting 4 7.8
2019-Dec-07 19:05 248 0 gusting 3 7.8